Weather History for KCNO - March, 2013

Change the Weather History Date:

Tuesday, March 12, 2013

  Actual Average Record
Temperature  
Mean Temperature 62 °F -  
Max Temperature 84 °F 67 °F 96 °F (2007)
Min Temperature 42 °F 41 °F 32 °F (1999)
Degree Days  
Heating Degree Days 3    
Growing Degree Days 12 (Base 50)    
Moisture  
Dew Point 43 °F    
Average Humidity 59    
Maximum Humidity 93    
Minimum Humidity 18    
Precipitation  
Precipitation 0.00 in - - ()
Sea Level Pressure  
Sea Level Pressure 30.05 in    
Wind  
Wind Speed 2 mph (WNW)    
Max Wind Speed 12 mph    
Max Gust Speed -    
Visibility 9 miles    
Events      
Averages and records for this station are not official NWS values.
T = Trace of Precipitation, MM = Missing Value Source: NWS Daily Summary

Daily Weather History Graph

Daily Weather History Graph

Search for Another Location

Airport or City:

Trip Planner

Search our weather history database for the weather conditions in past years. The results will help you decide how hot, cold, wet, or windy it might be!

Date:

Astronomy

Mar. 12, 2013 Rise Set
Actual Time 7:04 AM PDT 6:56 PM PDT
Civil Twilight 6:39 AM PDT 7:21 PM PDT
Nautical Twilight 6:10 AM PDT 7:50 PM PDT
Astronomical Twilight 5:41 AM PDT 8:19 PM PDT
Moon 7:18 AM PDT (3/12) 8:10 PM PDT (3/12)
Length of Visible Light 12h 41m
Length of Day
11h 51m
New Moon, 1% of the Moon is Illuminated
Mar 12
New Moon
Mar 19
First Quarter
Mar 27
Full
Apr 2
Last Quarter
Apr 10
New

Hourly Weather History & Observations

Time (PDT) Temp. Windchill Dew Point Humidity Pressure Visibility Wind Dir Wind Speed Gust Speed Precip Events Conditions
12:53 AM 46.9 °F - 42.1 °F 83% 30.09 in 7.0 mi ENE 3.5 mph - N/A   Clear
1:53 AM 43.0 °F - 39.0 °F 86% 30.09 in 7.0 mi Calm Calm - N/A   Clear
2:53 AM 45.0 °F - 42.1 °F 90% 30.07 in 6.0 mi Calm Calm - N/A   Clear
3:53 AM 45.0 °F 43.5 °F 43.0 °F 93% 30.06 in 6.0 mi North 3.5 mph - N/A   Clear
4:53 AM 43.0 °F - 39.0 °F 86% 30.05 in 7.0 mi Calm Calm - N/A   Clear
5:53 AM 43.0 °F - 39.9 °F 89% 30.05 in 7.0 mi Calm Calm - N/A   Clear
6:53 AM 42.1 °F - 39.9 °F 92% 30.05 in 10.0 mi Calm Calm - N/A   Partly Cloudy
7:53 AM 45.0 °F - 41.0 °F 86% 30.07 in 10.0 mi Calm Calm - N/A   Partly Cloudy
8:53 AM 54.0 °F - 44.1 °F 69% 30.08 in 10.0 mi Calm Calm - N/A   Clear
9:53 AM 61.0 °F - 46.9 °F 60% 30.09 in 10.0 mi Calm Calm - N/A   Partly Cloudy
10:53 AM 68.0 °F - 45.0 °F 43% 30.08 in 10.0 mi Variable 3.5 mph - N/A   Clear
11:53 AM 73.0 °F - 42.1 °F 33% 30.08 in 10.0 mi Calm Calm - N/A   Partly Cloudy
12:53 PM 78.1 °F - 36.0 °F 22% 30.05 in 10.0 mi Calm Calm - N/A   Partly Cloudy
1:53 PM 81.0 °F - 34.0 °F 18% 30.03 in 10.0 mi Variable 3.5 mph - N/A   Clear
2:53 PM 82.9 °F - 42.1 °F 24% 30.01 in 10.0 mi West 9.2 mph - N/A   Clear
3:53 PM 82.9 °F - 39.0 °F 21% 30.00 in 9.0 mi West 9.2 mph - N/A   Clear
4:53 PM 81.0 °F - 39.0 °F 22% 30.00 in 10.0 mi West 11.5 mph - N/A   Clear
5:53 PM 77.0 °F - 46.9 °F 34% 30.00 in 10.0 mi West 10.4 mph - N/A   Clear
6:53 PM 69.1 °F - 52.0 °F 54% 30.02 in 10.0 mi WSW 3.5 mph - N/A   Clear
7:53 PM 62.1 °F - 48.9 °F 62% 30.04 in 10.0 mi West 5.8 mph - N/A   Clear
8:53 PM 63.0 °F - 48.0 °F 58% 30.06 in 8.0 mi Calm Calm - N/A   Clear
9:53 PM 61.0 °F - 48.0 °F 62% 30.08 in 7.0 mi ENE 3.5 mph - N/A   Clear
10:53 PM 57.9 °F - 48.9 °F 72% 30.09 in 6.0 mi Calm Calm - N/A   Haze